User: anonymous   Login
Location: Bridgewater
(44.3670°N, 64.5170°W)
Time: 15:11:38
(UTC-04:00)
Language:

OPAL - Orbit

View from above orbital plane
View from above orbital plane
View from above satellite
View from above satellite

Ground track
Ground track

The orbit data is extracted from the following two-line orbital elements,

1 26063U 00004C   17049.89456369  .00000001  00000-0  20408-4 0  9991
2 26063 100.2211  31.4913 0035827 282.2580  77.4589 14.36652783894397
Epoch (UTC): 18 February 2017 21:28:10
Eccentricity: 0.0035827
inclination: 100.2211°
perigee height: 744 km
apogee height: 795 km
right ascension of ascending node: 31.4913°
argument of perigee: 282.2580°
revolutions per day: 14.36652783
mean anomaly at epoch: 77.4589°
orbit number at epoch: 89439

The dashed part of the orbit path shows where the satellite is in the earth's shadow,  

DLR